World > North America > United States > California
Hourly Weather in La Jolla, CaliforniaLa Jolla, California Hourly Weather

La Jolla, CA Hourly Weather

Hourly Weather La Jolla, CaliforniaHourly Weather in La Jolla, CA
Lat: 32.85N, Lon: 117.27W  ICAO: KNKX
Web Search

Ads allow us to feed your daily addiction for the world's greatest weather information. We're determined to offer quality sponsors, in the least annoying way possible.

Feedback

La Jolla Hourly Weather

36 Hour Weather Scroll   °F Click to change La Jolla hourly weather to Imperial units.Click to change La Jolla hourly weather to Metric units. °C
Currently, Overcast, temperature is 55°F13°C, dew point 49°F9°C, humidity 80%. Wind direction is E at 8 mph13 km/h with visibility of 10.00 mi16 km. Barometric pressure is 29.97 in1015 mb.

Dec 07
7:00 AM

Dec 07
8:00 AM

Dec 07
9:00 AM

Dec 07
10:00 AM

Dec 07
11:00 AM

Dec 07
NOON

Dec 07
1:00 PM

Dec 07
2:00 PM

Dec 07
3:00 PM

Dec 07
4:00 PM

Dec 07
5:00 PM

Dec 07
6:00 PM

Dec 07
7:00 PM

Dec 07
8:00 PM

Dec 07
9:00 PM

Dec 07
10:00 PM

Dec 07
11:00 PM

Dec 08
MIDNIGHT

Dec 08
1:00 AM

Dec 08
2:00 AM

Dec 08
3:00 AM

Dec 08
4:00 AM

Dec 08
5:00 AM

Dec 08
6:00 AM

Dec 08
7:00 AM

Dec 08
8:00 AM

Dec 08
9:00 AM

Dec 08
10:00 AM

Dec 08
11:00 AM

Dec 08
NOON

Dec 08
1:00 PM

Dec 08
2:00 PM

Dec 08
3:00 PM

Dec 08
4:00 PM

Dec 08
5:00 PM

Dec 08
6:00 PM
Cloudy Cloudy Cloudy Cloudy Cloudy Cloudy Cloudy Cloudy Cloudy Cloudy Cloudy Cloudy Cloudy Cloudy Cloudy Cloudy Cloudy Cloudy Cloudy Cloudy Cloudy Cloudy Cloudy Cloudy Cloudy Cloudy Mostly Cloudy Mostly Cloudy Mostly Cloudy Mostly Cloudy Mostly Cloudy Mostly Cloudy Mostly Cloudy Mostly Cloudy Mostly Cloudy Mostly Cloudy
Cloudy Cloudy Cloudy Cloudy Cloudy Cloudy Cloudy Cloudy Cloudy Cloudy Cloudy Cloudy Cloudy Cloudy Cloudy Cloudy Cloudy Cloudy Cloudy Cloudy Cloudy Cloudy Cloudy Cloudy Cloudy Cloudy Mostly Cloudy Mostly Cloudy Mostly Cloudy Mostly Cloudy Mostly Cloudy Mostly Cloudy Mostly Cloudy Mostly Cloudy Mostly Cloudy Mostly Cloudy
53°F12°C 54°F12°C 54°F12°C 55°F13°C 56°F13°C 58°F14°C 59°F15°C 58°F14°C 57°F14°C 56°F13°C 55°F13°C 55°F13°C 54°F12°C 54°F12°C 55°F13°C 55°F13°C 55°F13°C 55°F13°C 55°F13°C 55°F13°C 55°F13°C 55°F13°C 54°F12°C 54°F12°C 53°F12°C 56°F13°C 58°F14°C 61°F16°C 62°F17°C 63°F17°C 64°F18°C 63°F17°C 62°F17°C 61°F16°C 60°F16°C 58°F14°C
Rain Rain Rain Rain Rain Rain Rain Rain Rain Rain - - - - - - - - - - - - - - - - - - - - - - - - - -
27% 27% 27% 27% 60% 60% 60% 60% 60% 60% 9% 9% 9% 9% 9% 9% 6% 6% 6% 6% 6% 6% 9% 9% 9% 9% 9% 9% 0% 0% 0% 0% 0% 0% 10% 10%
51°F11°C 52°F11°C 54°F12°C 55°F13°C 54°F12°C 53°F12°C 52°F11°C 53°F12°C 53°F12°C 54°F12°C 53°F12°C 51°F11°C 50°F10°C 50°F10°C 49°F9°C 49°F9°C 49°F9°C 50°F10°C 50°F10°C 50°F10°C 51°F11°C 51°F11°C 51°F11°C 50°F10°C 50°F10°C 51°F11°C 51°F11°C 52°F11°C 52°F11°C 52°F11°C 52°F11°C 52°F11°C 52°F11°C 52°F11°C 52°F11°C 51°F11°C
93% 93% 100% 100% 93% 83% 78% 83% 86% 93% 93% 86% 86% 86% 80% 80% 80% 83% 83% 83% 86% 86% 90% 86% 90% 83% 77% 72% 70% 67% 65% 67% 70% 72% 75% 77%
SE SE SE SSE S SSE SW SW SSE S S SSE SE SE SE SE ESE E E E E ESE ESE E E ESE ESE SE S SW SSW SSW SSW SSW SW SW
5 mph 5 mph 6 mph 6 mph 6 mph 5 mph 5 mph 5 mph 5 mph 5 mph 5 mph 3 mph 3 mph 3 mph 3 mph 3 mph 3 mph 3 mph 3 mph 3 mph 2 mph 2 mph 2 mph 3 mph 3 mph 3 mph 3 mph 3 mph 3 mph 6 mph 6 mph 6 mph 5 mph 5 mph 5 mph 3 mph
10 mi16 km 10 mi16 km 10 mi16 km 10 mi16 km 10 mi16 km 10 mi16 km 10 mi16 km 10 mi16 km 10 mi16 km 10 mi16 km 10 mi16 km 10 mi16 km 10 mi16 km 10 mi16 km 10 mi16 km 10 mi16 km 10 mi16 km 10 mi16 km 10 mi16 km 10 mi16 km 10 mi16 km 10 mi16 km 10 mi16 km 10 mi16 km 10 mi16 km 10 mi16 km 10 mi16 km 10 mi16 km 10 mi16 km 10 mi16 km 10 mi16 km 10 mi16 km 10 mi16 km 10 mi16 km 10 mi16 km 10 mi16 km
Hour (PST)
Weather
Clouds
Temperature
Precip. Type
POP
Dewpoint
Humidity
Wind Direction
Wind Speed
Visibility
POP = Probability of Precipitation. ** Indicates missing data/values from model statistics.

24 Hour Forecast

Today - Cloudy in the morning...Becoming mostly cloudy. Patchy fog in the morning. Chance of showers. Highs around 61. Light winds. Chance of measurable precipitation 50%.
Tonight - Partly cloudy. Lows 46 to 53. Light winds.

48 Hour Forecast API Feed


Tue, Dec 7
7:00 am

Tue, Dec 7
8:00 am

Tue, Dec 7
9:00 am

Tue, Dec 7
10:00 am

Tue, Dec 7
11:00 am

Tue, Dec 7
Noon

Tue, Dec 7
1:00 pm

Tue, Dec 7
2:00 pm

Tue, Dec 7
3:00 pm

Tue, Dec 7
4:00 pm

Tue, Dec 7
5:00 pm

Tue, Dec 7
6:00 pm

Tue, Dec 7
7:00 pm

Tue, Dec 7
8:00 pm

Tue, Dec 7
9:00 pm

Tue, Dec 7
10:00 pm

Tue, Dec 7
11:00 pm

Wed, Dec 8
Midnight

Wed, Dec 8
1:00 am

Wed, Dec 8
2:00 am

Wed, Dec 8
3:00 am

Wed, Dec 8
4:00 am

Wed, Dec 8
5:00 am

Wed, Dec 8
6:00 am

Wed, Dec 8
7:00 am

Wed, Dec 8
8:00 am

Wed, Dec 8
9:00 am

Wed, Dec 8
10:00 am

Wed, Dec 8
11:00 am

Wed, Dec 8
Noon

Wed, Dec 8
1:00 pm

Wed, Dec 8
2:00 pm

Wed, Dec 8
3:00 pm

Wed, Dec 8
4:00 pm

Wed, Dec 8
5:00 pm

Wed, Dec 8
6:00 pm

Wed, Dec 8
7:00 pm

Wed, Dec 8
8:00 pm

Wed, Dec 8
9:00 pm

Wed, Dec 8
10:00 pm

Wed, Dec 8
11:00 pm

Thu, Dec 9
Midnight

Thu, Dec 9
1:00 am

Thu, Dec 9
2:00 am

Thu, Dec 9
3:00 am

Thu, Dec 9
4:00 am

Thu, Dec 9
5:00 am

Thu, Dec 9
6:00 am
OvercastPatchy Rain PossibleOvercastOvercastPatchy Light DrizzleLight DrizzleLight DrizzleLight RainLight DrizzleLight DrizzleModerate RainCloudyCloudyPartly CloudyPartly CloudyClearClearPartly CloudyCloudyCloudyCloudyOvercastCloudyPartly CloudyOvercastOvercastPartly CloudySunnySunnySunnyPartly CloudyPartly CloudyPartly CloudyPartly CloudyPartly CloudyClearClearClearPartly CloudyPartly CloudyCloudyCloudyCloudyPatchy Rain PossiblePatchy Rain PossiblePatchy Rain PossibleLight Rain ShowerLight Rain Shower
Overcast Patchy rain possible Overcast Overcast Patchy light drizzle Light drizzle Light drizzle Light rain Light drizzle Light drizzle Moderate rain Cloudy Cloudy Partly cloudy Partly cloudy Clear Clear Partly cloudy Cloudy Cloudy Cloudy Overcast Cloudy Partly cloudy Overcast Overcast Partly cloudy Sunny Sunny Sunny Partly cloudy Partly cloudy Partly cloudy Partly cloudy Partly cloudy Clear Clear Clear Partly cloudy Partly cloudy Cloudy Cloudy Cloudy Patchy rain possible Patchy rain possible Patchy rain possible Light rain showers Light rain showers
57°F
14°C
58°F
15°C
58°F
15°C
59°F
15°C
60°F
15°C
59°F
15°C
58°F
15°C
58°F
14°C
58°F
14°C
58°F
14°C
58°F
15°C
59°F
15°C
59°F
15°C
57°F
14°C
57°F
14°C
57°F
14°C
57°F
14°C
56°F
14°C
56°F
13°C
56°F
14°C
56°F
14°C
57°F
14°C
57°F
14°C
57°F
14°C
56°F
14°C
57°F
14°C
58°F
14°C
59°F
15°C
62°F
17°C
63°F
17°C
63°F
17°C
63°F
17°C
63°F
17°C
62°F
17°C
62°F
17°C
62°F
17°C
62°F
17°C
59°F
15°C
59°F
15°C
58°F
15°C
58°F
15°C
58°F
14°C
58°F
14°C
58°F
15°C
58°F
15°C
58°F
15°C
58°F
14°C
58°F
15°C
51°F
11°C
51°F
10°C
51°F
10°C
50°F
10°C
51°F
10°C
51°F
11°C
52°F
11°C
53°F
12°C
53°F
12°C
53°F
12°C
53°F
12°C
53°F
12°C
53°F
12°C
52°F
11°C
53°F
11°C
53°F
11°C
53°F
11°C
52°F
11°C
52°F
11°C
52°F
11°C
52°F
11°C
52°F
11°C
52°F
11°C
52°F
11°C
52°F
11°C
52°F
11°C
51°F
11°C
51°F
10°C
51°F
11°C
52°F
11°C
51°F
11°C
52°F
11°C
52°F
11°C
52°F
11°C
53°F
12°C
54°F
12°C
54°F
12°C
53°F
12°C
53°F
12°C
53°F
12°C
54°F
12°C
54°F
12°C
54°F
12°C
54°F
12°C
54°F
12°C
54°F
12°C
54°F
12°C
54°F
12°C
29.94 in
1014 mb
29.94 in
1014 mb
29.97 in
1015 mb
29.97 in
1015 mb
29.97 in
1015 mb
29.94 in
1014 mb
29.94 in
1014 mb
29.94 in
1014 mb
29.94 in
1014 mb
29.94 in
1014 mb
29.94 in
1014 mb
29.94 in
1014 mb
29.97 in
1015 mb
29.97 in
1015 mb
29.97 in
1015 mb
29.97 in
1015 mb
29.97 in
1015 mb
29.97 in
1015 mb
29.97 in
1015 mb
29.97 in
1015 mb
30 in
1016 mb
30 in
1016 mb
30 in
1016 mb
30 in
1016 mb
30.03 in
1017 mb
30.03 in
1017 mb
30.03 in
1017 mb
30.03 in
1017 mb
30.03 in
1017 mb
30.03 in
1017 mb
30 in
1016 mb
30 in
1016 mb
29.97 in
1015 mb
29.97 in
1015 mb
29.97 in
1015 mb
29.97 in
1015 mb
29.97 in
1015 mb
30 in
1016 mb
30 in
1016 mb
30 in
1016 mb
30 in
1016 mb
30 in
1016 mb
30 in
1016 mb
29.97 in
1015 mb
29.97 in
1015 mb
29.94 in
1014 mb
29.94 in
1014 mb
29.94 in
1014 mb
79%77%75%73%72%76%81%86%86%84%83%82%82%83%84%85%86%85%85%85%84%83%83%84%84%84%80%73%68%66%65%67%68%70%72%75%77%79%81%83%85%86%86%85%86%86%88%86%
SSESSESSESESESSESSSWSSSESSESSSWSSWSSSESSEESENNEESESSESESESSESEEESWSSWWSWWWWWWSWWSWWSWSWSWSSSSWSSWSSWSWSW
7 mph
12 km/h
6 mph
10 km/h
6 mph
9 km/h
6 mph
9 km/h
8 mph
12 km/h
9 mph
14 km/h
6 mph
9 km/h
5 mph
8 km/h
4 mph
7 km/h
5 mph
8 km/h
4 mph
7 km/h
3 mph
5 km/h
2 mph
4 km/h
2 mph
4 km/h
2 mph
3 km/h
2 mph
3 km/h
2 mph
3 km/h
0 mph
1 km/h
2 mph
4 km/h
2 mph
3 km/h
1 mph
1 km/h
4 mph
6 km/h
2 mph
3 km/h
3 mph
5 km/h
1 mph
2 km/h
1 mph
1 km/h
3 mph
5 km/h
2 mph
4 km/h
1 mph
2 km/h
5 mph
8 km/h
7 mph
11 km/h
7 mph
11 km/h
7 mph
11 km/h
6 mph
9 km/h
4 mph
6 km/h
3 mph
5 km/h
3 mph
5 km/h
3 mph
4 km/h
2 mph
3 km/h
2 mph
4 km/h
2 mph
4 km/h
3 mph
4 km/h
4 mph
6 km/h
4 mph
7 km/h
6 mph
9 km/h
7 mph
11 km/h
8 mph
12 km/h
8 mph
13 km/h
0%82%0%0%86%77%77%90%72%70%93%0%0%0%0%0%0%0%0%0%0%0%0%0%0%0%0%0%0%0%0%0%0%0%0%0%0%0%0%0%0%0%0%82%70%82%81%81%
6 mi
10 km
6 mi
10 km
6 mi
10 km
6 mi
10 km
3 mi
5 km
1 mi
2 km
1 mi
2 km
6 mi
9 km
1 mi
2 km
1 mi
2 km
4 mi
7 km
6 mi
10 km
6 mi
10 km
6 mi
10 km
6 mi
10 km
6 mi
10 km
6 mi
10 km
6 mi
10 km
6 mi
10 km
6 mi
10 km
6 mi
10 km
6 mi
10 km
6 mi
10 km
6 mi
10 km
6 mi
10 km
6 mi
10 km
6 mi
10 km
6 mi
10 km
6 mi
10 km
6 mi
10 km
6 mi
10 km
6 mi
10 km
6 mi
10 km
6 mi
10 km
6 mi
10 km
6 mi
10 km
6 mi
10 km
6 mi
10 km
6 mi
10 km
6 mi
10 km
6 mi
10 km
6 mi
10 km
6 mi
10 km
6 mi
10 km
6 mi
10 km
6 mi
10 km
6 mi
10 km
6 mi
10 km

Day/Time
Weather
Condition
Temperature
Dew Point
Pressure
Humidity
Wind Direction
Wind Speed
Prob Precip %
Visibility
Prob Precip % = Probability of Precipitation.